Darstellungsparameter: Aktuell verwendete Einstellungen:
Skalierung der Graphiken ... ?
xyx+y,   Skalierungsfaktor:      Skalierung: Modus: x, Faktor: 1
Darstellungszeitraum ... ?
Vom - - bis: - -   Zeitraum: 23.03.2020 - 24.03.2020
Min/Max/Avg-Anzeige ... ?
Zeige MMA aktuell
Zeige MMA Monat
Zeige MMA alles
Zeige --A aktuell
Zeige --A Monat
Zeige --A alles
Keine MMA-Anzeige
MMA:
Average (ber die Originaldaten)
MMA-Basis: 23.03.2020 - 24.03.2020
Quicknavigation für Darstellung... ?
Tage:      1T, 2T, 3T, 5T -1T -2T -3T -5T +1T +2T +3T +5T
Wochen: 1W, 2W, 3W -1W -2W -3W +1W +2W +3W
Monate: 1M, 3M, 6M -1M -3M -6M +1M +3M +6M
Jahre:    1J, 3J, 5J, 10J -1J -3J -5J -10J +1J +3J +5J +10J
Nutze für die Darstellung ... ?
Originaldaten oder Mittelwerte auf ...
Stundenbasis Tagesbasis Wochenbasis
Monatsbasis Jahresbasis      Datenbasis: Original-Daten
Darstellen als:
Statistik (Auto) Statistik J:M      Darstellung:
Zur Graphik,    zurück zur Übersicht aller Sensoren.
 
Tabellarische Datenbersicht: ?
 
Sensor: Nr:Datum:Temp:Feuchte:
Aussen-T/F 1 23-03-2020 00:00:18 0.4 C 34 %
2 23-03-2020 00:10:18 0 C 33 %
3 23-03-2020 00:20:17 -0.2 C 33 %
4 23-03-2020 00:30:17 -0.5 C 35 %
5 23-03-2020 00:40:17 -0.7 C 36 %
6 23-03-2020 00:50:18 -1.1 C 36 %
7 23-03-2020 01:00:17 -0.6 C 35 %
8 23-03-2020 01:10:17 -0.7 C 36 %
9 23-03-2020 01:20:17 -0.9 C 35 %
10 23-03-2020 01:30:18 -0.8 C 35 %
11 23-03-2020 01:40:18 -1.1 C 35 %
12 23-03-2020 01:50:18 -0.8 C 35 %
13 23-03-2020 02:00:18 -1.1 C 35 %
14 23-03-2020 02:10:18 -1.4 C 35 %
15 23-03-2020 02:20:17 -1.2 C 35 %
16 23-03-2020 02:30:17 -1.2 C 35 %
17 23-03-2020 02:40:17 -1.2 C 35 %
18 23-03-2020 02:50:17 -1.3 C 35 %
19 23-03-2020 03:00:17 -1.6 C 35 %
20 23-03-2020 03:10:18 -1.9 C 35 %
21 23-03-2020 03:20:18 -1.6 C 35 %
22 23-03-2020 03:30:18 -1.7 C 35 %
23 23-03-2020 03:40:18 -1.9 C 35 %
24 23-03-2020 03:50:18 -1.8 C 35 %
25 23-03-2020 04:00:18 -1.8 C 35 %
Sensor: Nr:Datum:Temp:Feuchte:
Aussen-T/F 26 23-03-2020 04:10:18 -2.1 C 35 %
27 23-03-2020 04:20:17 -1.9 C 35 %
28 23-03-2020 04:30:17 -2 C 35 %
29 23-03-2020 04:40:17 -2.1 C 35 %
30 23-03-2020 04:50:17 -2.7 C 36 %
31 23-03-2020 05:00:18 -2.5 C 36 %
32 23-03-2020 05:10:18 -2.4 C 36 %
33 23-03-2020 05:20:17 -2.3 C 36 %
34 23-03-2020 05:30:18 -2.4 C 35 %
35 23-03-2020 05:40:18 -2.7 C 36 %
36 23-03-2020 05:50:17 -2.7 C 36 %
37 23-03-2020 06:00:18 -2.6 C 36 %
38 23-03-2020 06:10:18 -2.9 C 36 %
39 23-03-2020 06:20:17 -2.6 C 36 %
40 23-03-2020 06:30:18 -2.8 C 36 %
41 23-03-2020 06:40:18 -3.2 C 36 %
42 23-03-2020 06:50:18 -3 C 36 %
43 23-03-2020 07:00:18 -3 C 36 %
44 23-03-2020 07:10:18 -3.1 C 36 %
45 23-03-2020 07:20:18 -2.5 C 35 %
46 23-03-2020 07:30:18 -2.7 C 36 %
47 23-03-2020 07:40:18 -2.6 C 36 %
48 23-03-2020 07:50:18 -1.9 C 34 %
49 23-03-2020 08:00:18 -2 C 35 %
50 23-03-2020 08:10:18 -1.4 C 32 %
Sensor: Nr:Datum:Temp:Feuchte:
Aussen-T/F 51 23-03-2020 08:20:17 -1.1 C 31 %
52 23-03-2020 08:30:18 -0.2 C 27 %
53 23-03-2020 08:40:18 -0.2 C 26 %
54 23-03-2020 08:50:18 -0.3 C 25 %
55 23-03-2020 09:00:18 0 C 23 %
56 23-03-2020 09:10:18 0.2 C 23 %
57 23-03-2020 09:20:18 0.5 C 20 %
58 23-03-2020 09:30:17 0.7 C 20 %
59 23-03-2020 09:40:17 1.5 C 20 %
60 23-03-2020 09:50:18 1.8 C 20 %
61 23-03-2020 10:00:18 2.4 C 20 %
62 23-03-2020 10:10:18 2.7 C 20 %
63 23-03-2020 10:20:18 3 C 20 %
64 23-03-2020 10:30:17 3.8 C 20 %
65 23-03-2020 10:40:17 4.1 C 20 %
66 23-03-2020 10:50:17 4.7 C 20 %
67 23-03-2020 11:00:17 5.5 C 20 %
68 23-03-2020 11:10:17 5.5 C 20 %
69 23-03-2020 11:20:17 6 C 20 %
70 23-03-2020 11:30:18 6.7 C 20 %
71 23-03-2020 11:40:18 6.2 C 20 %
72 23-03-2020 11:50:17 6.3 C 20 %
73 23-03-2020 12:00:18 7 C 20 %
74 23-03-2020 12:10:18 7.4 C 20 %
75 23-03-2020 12:20:18 7.8 C 20 %
Sensor: Nr:Datum:Temp:Feuchte:
Aussen-T/F 76 23-03-2020 12:30:18 7.5 C 20 %
77 23-03-2020 12:40:18 8.1 C 20 %
78 23-03-2020 12:50:18 8.7 C 20 %
79 23-03-2020 13:00:17 10.4 C 20 %
80 23-03-2020 13:10:17 10.7 C 20 %
81 23-03-2020 13:20:17 11.9 C 20 %
82 23-03-2020 13:30:17 11.4 C 20 %
83 23-03-2020 13:40:17 10 C 20 %
84 23-03-2020 13:50:17 9.8 C 20 %
85 23-03-2020 14:00:18 9.2 C 20 %
86 23-03-2020 14:10:18 10.5 C 20 %
87 23-03-2020 14:20:18 12.9 C 20 %
88 23-03-2020 14:30:18 13 C 20 %
89 23-03-2020 14:40:18 14.2 C 20 %
90 23-03-2020 14:50:18 14.3 C 20 %
91 23-03-2020 15:00:18 14.3 C 20 %
92 23-03-2020 15:10:18 14.4 C 20 %
93 23-03-2020 15:20:17 14.7 C 20 %
94 23-03-2020 15:30:17 13.5 C 20 %
95 23-03-2020 15:40:17 14.4 C 20 %
96 23-03-2020 15:50:17 14.1 C 20 %
97 23-03-2020 16:00:17 13.8 C 20 %
98 23-03-2020 16:10:17 14.7 C 20 %
99 23-03-2020 16:20:17 15.3 C 20 %
100 23-03-2020 16:30:18 14.7 C 20 %
Sensor: Nr:Datum:Temp:Feuchte:
Aussen-T/F 101 23-03-2020 16:40:18 14.8 C 20 %
102 23-03-2020 16:50:17 11.4 C 20 %
103 23-03-2020 17:00:18 10.1 C 20 %
104 23-03-2020 17:10:18 9.7 C 20 %
105 23-03-2020 17:20:18 9.4 C 20 %
106 23-03-2020 17:30:18 9 C 20 %
107 23-03-2020 17:40:18 9 C 20 %
108 23-03-2020 17:50:17 8.6 C 20 %
109 23-03-2020 18:00:18 8.3 C 20 %
110 23-03-2020 18:10:18 7.6 C 20 %
111 23-03-2020 18:20:17 7.4 C 20 %
112 23-03-2020 18:30:18 7 C 20 %
113 23-03-2020 18:40:18 5.3 C 20 %
114 23-03-2020 18:50:18 4.4 C 20 %
115 23-03-2020 19:00:18 4.2 C 20 %
116 23-03-2020 19:10:18 4.1 C 20 %
117 23-03-2020 19:20:17 3.7 C 20 %
118 23-03-2020 19:30:18 3.6 C 20 %
119 23-03-2020 19:40:18 3.4 C 20 %
120 23-03-2020 19:50:18 2.7 C 20 %
121 23-03-2020 20:00:17 2.9 C 20 %
122 23-03-2020 20:10:17 2.6 C 20 %
123 23-03-2020 20:20:17 2.5 C 20 %
124 23-03-2020 20:30:18 2.3 C 20 %
125 23-03-2020 20:40:18 2.4 C 20 %
Sensor: Nr:Datum:Temp:Feuchte:
Aussen-T/F 126 23-03-2020 20:50:18 2.3 C 20 %
127 23-03-2020 21:00:18 2.1 C 20 %
128 23-03-2020 21:10:18 0.9 C 27 %
129 23-03-2020 21:20:17 1 C 26 %
130 23-03-2020 21:30:18 1.1 C 28 %
131 23-03-2020 21:40:18 0.7 C 29 %
132 23-03-2020 21:50:18 0.2 C 30 %
133 23-03-2020 22:00:17 -0.4 C 31 %
134 23-03-2020 22:10:18 -0.9 C 35 %
135 23-03-2020 22:20:18 -0.2 C 34 %
136 23-03-2020 22:30:18 -0.9 C 35 %
137 23-03-2020 22:40:18 -0.9 C 35 %
138 23-03-2020 22:50:18 -1.3 C 35 %
139 23-03-2020 23:00:18 -1.4 C 36 %
140 23-03-2020 23:10:18 -1.6 C 36 %
141 23-03-2020 23:20:17 -1.7 C 36 %
142 23-03-2020 23:30:17 -1.7 C 37 %
143 23-03-2020 23:40:17 -1.9 C 37 %
144 23-03-2020 23:50:18 -1.8 C 37 %
145 24-03-2020 00:00:18 -1.9 C 36 %
146 24-03-2020 00:10:18 -2 C 36 %
147 24-03-2020 00:20:17 -2.2 C 36 %
148 24-03-2020 00:30:18 -2.4 C 37 %
149 24-03-2020 00:40:18 -2.4 C 38 %
150 24-03-2020 00:50:18 -2.5 C 38 %
Sensor: Nr:Datum:Temp:Feuchte:
Aussen-T/F 151 24-03-2020 01:00:18 -2.3 C 37 %
152 24-03-2020 01:10:18 -2.6 C 37 %
153 24-03-2020 01:20:18 -2.7 C 38 %
154 24-03-2020 01:30:18 -2.7 C 38 %
155 24-03-2020 01:40:18 -3 C 38 %
156 24-03-2020 01:50:18 -2.5 C 37 %
157 24-03-2020 02:00:18 -2.6 C 38 %
158 24-03-2020 02:10:18 -2.8 C 38 %
159 24-03-2020 02:20:17 -3.1 C 38 %
160 24-03-2020 02:30:17 -3.2 C 38 %
161 24-03-2020 02:40:17 -3.3 C 38 %
162 24-03-2020 02:50:17 -3.2 C 38 %
163 24-03-2020 03:00:17 -3.4 C 38 %
164 24-03-2020 03:10:17 -3.5 C 38 %
165 24-03-2020 03:20:17 -3.6 C 39 %
166 24-03-2020 03:30:17 -3.6 C 38 %
167 24-03-2020 03:40:17 -3.7 C 38 %
168 24-03-2020 03:50:17 -3.9 C 39 %
169 24-03-2020 04:00:18 -3.7 C 39 %
170 24-03-2020 04:10:18 -3.9 C 38 %
171 24-03-2020 04:20:18 -4 C 38 %
172 24-03-2020 04:30:18 -4 C 38 %
173 24-03-2020 04:40:18 -4 C 38 %
174 24-03-2020 04:50:17 -3.9 C 38 %
175 24-03-2020 05:00:17 -4.2 C 38 %
Sensor: Nr:Datum:Temp:Feuchte:
Aussen-T/F 176 24-03-2020 05:10:17 -4.3 C 39 %
177 24-03-2020 05:20:17 -4.2 C 38 %
178 24-03-2020 05:30:18 -4.3 C 38 %
179 24-03-2020 05:40:18 -4.4 C 38 %
180 24-03-2020 05:50:18 -4.6 C 39 %
181 24-03-2020 06:00:17 -4.7 C 39 %
182 24-03-2020 06:10:18 -4.7 C 38 %
183 24-03-2020 06:20:17 -4.7 C 39 %
184 24-03-2020 06:30:18 -4.7 C 38 %
185 24-03-2020 06:40:18 -4.6 C 39 %
186 24-03-2020 06:50:18 -4.4 C 38 %
187 24-03-2020 07:00:18 -4.5 C 39 %
188 24-03-2020 07:10:18 -4.4 C 39 %
189 24-03-2020 07:20:18 -4.3 C 39 %
190 24-03-2020 07:30:18 -4.2 C 39 %
191 24-03-2020 07:40:18 -4 C 39 %
192 24-03-2020 07:50:17 -3.8 C 39 %
193 24-03-2020 08:00:17 -3.7 C 39 %
194 24-03-2020 08:10:17 -3.5 C 38 %
195 24-03-2020 08:20:17 -3.3 C 38 %
196 24-03-2020 08:30:17 -2.5 C 38 %
197 24-03-2020 08:40:17 -2.4 C 37 %
198 24-03-2020 08:50:17 -2 C 37 %
199 24-03-2020 09:00:17 -1.6 C 36 %
200 24-03-2020 09:10:17 -0.7 C 35 %
Sensor: Nr:Datum:Temp:Feuchte:
Aussen-T/F 201 24-03-2020 09:20:17 -0.2 C 34 %
202 24-03-2020 09:30:17 0.4 C 30 %
203 24-03-2020 09:40:17 1 C 27 %
204 24-03-2020 09:50:18 1.7 C 23 %
205 24-03-2020 10:00:18 3 C 20 %
206 24-03-2020 10:10:18 3.3 C 20 %
207 24-03-2020 10:20:17 3.9 C 20 %
208 24-03-2020 10:30:17 4.3 C 20 %
209 24-03-2020 10:40:17 4.7 C 20 %
210 24-03-2020 10:50:17 5.7 C 20 %
211 24-03-2020 11:00:18 5.7 C 20 %
212 24-03-2020 11:10:18 6.4 C 20 %
213 24-03-2020 11:20:17 6.9 C 20 %
214 24-03-2020 11:30:17 7.9 C 20 %
215 24-03-2020 11:40:17 7.2 C 20 %
216 24-03-2020 11:50:18 6.8 C 20 %
217 24-03-2020 12:00:18 7.8 C 20 %
218 24-03-2020 12:10:18 8.6 C 20 %
219 24-03-2020 12:20:17 8.2 C 20 %
220 24-03-2020 12:30:17 8.2 C 20 %
221 24-03-2020 12:40:17 9 C 20 %
222 24-03-2020 12:50:17 9.2 C 20 %
223 24-03-2020 13:00:18 10.4 C 20 %
224 24-03-2020 13:10:18 11.7 C 20 %
225 24-03-2020 13:20:17 12.5 C 20 %
Sensor: Nr:Datum:Temp:Feuchte:
Aussen-T/F 226 24-03-2020 13:30:17 13 C 20 %
227 24-03-2020 13:40:17 11.9 C 20 %
228 24-03-2020 13:50:18 11 C 20 %
229 24-03-2020 14:00:17 10.8 C 20 %
230 24-03-2020 14:10:17 11.3 C 20 %
231 24-03-2020 14:20:17 13.7 C 20 %
232 24-03-2020 14:30:17 12.2 C 20 %
233 24-03-2020 14:40:17 14.4 C 20 %
234 24-03-2020 14:50:18 13.4 C 20 %
235 24-03-2020 15:00:18 13.5 C 20 %
236 24-03-2020 15:10:18 14.1 C 20 %
237 24-03-2020 15:20:18 15.3 C 20 %
238 24-03-2020 15:30:18 14.1 C 20 %
239 24-03-2020 15:40:18 15.4 C 20 %
240 24-03-2020 15:50:18 14.9 C 20 %
241 24-03-2020 16:00:18 14.8 C 20 %
242 24-03-2020 16:10:18 14.8 C 20 %
243 24-03-2020 16:20:18 14.1 C 20 %
244 24-03-2020 16:30:18 13.6 C 20 %
245 24-03-2020 16:40:18 14.3 C 20 %
246 24-03-2020 16:50:18 11.4 C 20 %
247 24-03-2020 17:00:18 10.8 C 20 %
248 24-03-2020 17:10:18 10.4 C 20 %
249 24-03-2020 17:20:18 10.1 C 20 %
250 24-03-2020 17:30:18 9.9 C 20 %
Sensor: Nr:Datum:Temp:Feuchte:
Aussen-T/F 251 24-03-2020 17:40:18 9.6 C 20 %
252 24-03-2020 17:50:17 9.3 C 20 %
253 24-03-2020 18:00:17 9 C 20 %
254 24-03-2020 18:10:17 8.6 C 20 %
255 24-03-2020 18:20:17 8.4 C 20 %
256 24-03-2020 18:30:17 7.6 C 20 %
257 24-03-2020 18:40:18 6.4 C 20 %
258 24-03-2020 18:50:17 5.4 C 20 %
259 24-03-2020 19:00:18 4.9 C 20 %
260 24-03-2020 19:10:18 4.6 C 20 %
261 24-03-2020 19:20:18 4.5 C 20 %
262 24-03-2020 19:30:18 4.1 C 20 %
263 24-03-2020 19:40:18 3.9 C 20 %
264 24-03-2020 19:50:17 3.6 C 20 %
265 24-03-2020 20:00:18 3.6 C 20 %
266 24-03-2020 20:10:18 3.5 C 20 %
267 24-03-2020 20:20:17 3.4 C 20 %
268 24-03-2020 20:30:18 3.4 C 20 %
269 24-03-2020 20:40:18 2.9 C 20 %
270 24-03-2020 20:50:18 2.7 C 20 %
271 24-03-2020 21:00:18 2.7 C 20 %
272 24-03-2020 21:10:18 2.6 C 20 %
273 24-03-2020 21:20:17 2.3 C 20 %
274 24-03-2020 21:30:17 2.3 C 20 %
275 24-03-2020 21:40:17 2.2 C 20 %
Sensor: Nr:Datum:Temp:Feuchte:
Aussen-T/F 276 24-03-2020 21:50:17 2.2 C 20 %
277 24-03-2020 22:00:18 1.7 C 20 %
278 24-03-2020 22:10:18 1.6 C 20 %
279 24-03-2020 22:20:17 1.6 C 20 %
280 24-03-2020 22:30:18 0.3 C 25 %
281 24-03-2020 22:40:18 -0.2 C 30 %
282 24-03-2020 22:50:17 -0.7 C 30 %
283 24-03-2020 23:00:18 -1.2 C 32 %
284 24-03-2020 23:10:18 -1.1 C 31 %
285 24-03-2020 23:20:17 -1.4 C 31 %
286 24-03-2020 23:30:18 -1.7 C 30 %
287 24-03-2020 23:40:18 -0.9 C 30 %
288 24-03-2020 23:50:18 -1.2 C 30 %
Sensor: Nr:Datum:Temp:Feuchte:
G-T/H 1 23-03-2020 00:00:18 9.4 C 63 %
2 23-03-2020 00:10:18 9.4 C 63 %
3 23-03-2020 00:20:17 9.4 C 63 %
4 23-03-2020 00:30:17 9.4 C 63 %
5 23-03-2020 00:40:17 9.3 C 63 %
6 23-03-2020 00:50:18 9.3 C 63 %
7 23-03-2020 01:00:17 9.3 C 63 %
8 23-03-2020 01:10:17 9.3 C 63 %
9 23-03-2020 01:20:17 9.3 C 63 %
10 23-03-2020 01:30:18 9.3 C 63 %
11 23-03-2020 01:40:18 9.2 C 63 %
12 23-03-2020 01:50:18 9.2 C 63 %
13 23-03-2020 02:00:18 9.2 C 63 %
14 23-03-2020 02:10:18 9.2 C 63 %
15 23-03-2020 02:20:17 9.2 C 63 %
16 23-03-2020 02:30:17 9.2 C 63 %
17 23-03-2020 02:40:17 9.1 C 63 %
18 23-03-2020 02:50:17 9.1 C 63 %
19 23-03-2020 03:00:17 9.1 C 63 %
20 23-03-2020 03:10:18 9.1 C 63 %
21 23-03-2020 03:20:18 9.1 C 63 %
22 23-03-2020 03:30:18 9.1 C 63 %
23 23-03-2020 03:40:18 9.1 C 63 %
24 23-03-2020 03:50:18 9 C 62 %
25 23-03-2020 04:00:18 9 C 62 %
Sensor: Nr:Datum:Temp:Feuchte:
G-T/H 26 23-03-2020 04:10:18 9 C 62 %
27 23-03-2020 04:20:17 9 C 62 %
28 23-03-2020 04:30:17 9 C 62 %
29 23-03-2020 04:40:17 9 C 62 %
30 23-03-2020 04:50:17 8.9 C 63 %
31 23-03-2020 05:00:18 8.9 C 63 %
32 23-03-2020 05:10:18 8.9 C 63 %
33 23-03-2020 05:20:17 8.9 C 63 %
34 23-03-2020 05:30:18 8.9 C 63 %
35 23-03-2020 05:40:18 8.8 C 63 %
36 23-03-2020 05:50:17 8.8 C 63 %
37 23-03-2020 06:00:18 8.8 C 63 %
38 23-03-2020 06:10:18 8.8 C 63 %
39 23-03-2020 06:20:17 8.8 C 63 %
40 23-03-2020 06:30:18 8.7 C 63 %
41 23-03-2020 06:40:18 8.7 C 63 %
42 23-03-2020 06:50:18 8.7 C 63 %
43 23-03-2020 07:00:18 8.7 C 62 %
44 23-03-2020 07:10:18 8.6 C 62 %
45 23-03-2020 07:20:18 8.6 C 62 %
46 23-03-2020 07:30:18 8.6 C 62 %
47 23-03-2020 07:40:18 8.6 C 62 %
48 23-03-2020 07:50:18 8.6 C 62 %
49 23-03-2020 08:00:18 8.6 C 62 %
50 23-03-2020 08:10:18 8.5 C 62 %
Sensor: Nr:Datum:Temp:Feuchte:
G-T/H 51 23-03-2020 08:20:17 8.5 C 62 %
52 23-03-2020 08:30:18 8.5 C 62 %
53 23-03-2020 08:40:18 8.5 C 62 %
54 23-03-2020 08:50:18 8.5 C 62 %
55 23-03-2020 09:00:18 8.5 C 62 %
56 23-03-2020 09:10:18 8.5 C 62 %
57 23-03-2020 09:20:18 8.5 C 62 %
58 23-03-2020 09:30:17 8.4 C 62 %
59 23-03-2020 09:40:17 8.4 C 62 %
60 23-03-2020 09:50:18 8.4 C 62 %
61 23-03-2020 10:00:18 8.4 C 62 %
62 23-03-2020 10:10:18 8.4 C 62 %
63 23-03-2020 10:20:18 8.4 C 62 %
64 23-03-2020 10:30:17 8.4 C 62 %
65 23-03-2020 10:40:17 8.4 C 62 %
66 23-03-2020 10:50:17 8.4 C 62 %
67 23-03-2020 11:00:17 8.4 C 62 %
68 23-03-2020 11:10:17 8.4 C 62 %
69 23-03-2020 11:20:17 8.4 C 62 %
70 23-03-2020 11:30:18 8.4 C 62 %
71 23-03-2020 11:40:18 8.4 C 62 %
72 23-03-2020 11:50:17 8.4 C 62 %
73 23-03-2020 12:00:18 8.4 C 62 %
74 23-03-2020 12:10:18 8.4 C 62 %
75 23-03-2020 12:20:18 8.4 C 62 %
Sensor: Nr:Datum:Temp:Feuchte:
G-T/H 76 23-03-2020 12:30:18 8.4 C 62 %
77 23-03-2020 12:40:18 8.4 C 62 %
78 23-03-2020 12:50:18 8.4 C 62 %
79 23-03-2020 13:00:17 8.4 C 62 %
80 23-03-2020 13:10:17 8.4 C 62 %
81 23-03-2020 13:20:17 8.4 C 62 %
82 23-03-2020 13:30:17 8.4 C 62 %
83 23-03-2020 13:40:17 8.4 C 62 %
84 23-03-2020 13:50:17 8.4 C 62 %
85 23-03-2020 14:00:18 8.4 C 62 %
86 23-03-2020 14:10:18 8.4 C 62 %
87 23-03-2020 14:20:18 8.4 C 62 %
88 23-03-2020 14:30:18 8.4 C 62 %
89 23-03-2020 14:40:18 8.4 C 63 %
90 23-03-2020 14:50:18 8.4 C 63 %
91 23-03-2020 15:00:18 8.4 C 63 %
92 23-03-2020 15:10:18 8.4 C 63 %
93 23-03-2020 15:20:17 8.4 C 63 %
94 23-03-2020 15:30:17 8.5 C 63 %
95 23-03-2020 15:40:17 8.5 C 63 %
96 23-03-2020 15:50:17 8.5 C 63 %
97 23-03-2020 16:00:17 8.5 C 63 %
98 23-03-2020 16:10:17 8.5 C 63 %
99 23-03-2020 16:20:17 8.5 C 63 %
100 23-03-2020 16:30:18 8.5 C 63 %
Sensor: Nr:Datum:Temp:Feuchte:
G-T/H 101 23-03-2020 16:40:18 8.6 C 63 %
102 23-03-2020 16:50:17 8.5 C 63 %
103 23-03-2020 17:00:18 8.5 C 63 %
104 23-03-2020 17:10:18 8.5 C 63 %
105 23-03-2020 17:20:18 8.6 C 63 %
106 23-03-2020 17:30:18 8.6 C 63 %
107 23-03-2020 17:40:18 8.6 C 63 %
108 23-03-2020 17:50:17 8.6 C 63 %
109 23-03-2020 18:00:18 8.6 C 63 %
110 23-03-2020 18:10:18 8.6 C 64 %
111 23-03-2020 18:20:17 8.6 C 64 %
112 23-03-2020 18:30:18 8.6 C 64 %
113 23-03-2020 18:40:18 8.6 C 64 %
114 23-03-2020 18:50:18 8.6 C 64 %
115 23-03-2020 19:00:18 8.6 C 64 %
116 23-03-2020 19:10:18 8.6 C 64 %
117 23-03-2020 19:20:17 8.6 C 64 %
118 23-03-2020 19:30:18 8.6 C 64 %
119 23-03-2020 19:40:18 8.6 C 64 %
120 23-03-2020 19:50:18 8.6 C 64 %
121 23-03-2020 20:00:17 8.6 C 64 %
122 23-03-2020 20:10:17 8.6 C 64 %
123 23-03-2020 20:20:17 8.6 C 64 %
124 23-03-2020 20:30:18 8.6 C 64 %
125 23-03-2020 20:40:18 8.6 C 64 %
Sensor: Nr:Datum:Temp:Feuchte:
G-T/H 126 23-03-2020 20:50:18 8.6 C 64 %
127 23-03-2020 21:00:18 8.6 C 64 %
128 23-03-2020 21:10:18 8.6 C 64 %
129 23-03-2020 21:20:17 8.6 C 64 %
130 23-03-2020 21:30:18 8.6 C 64 %
131 23-03-2020 21:40:18 8.6 C 64 %
132 23-03-2020 21:50:18 8.6 C 64 %
133 23-03-2020 22:00:17 8.6 C 64 %
134 23-03-2020 22:10:18 8.6 C 64 %
135 23-03-2020 22:20:18 8.6 C 64 %
136 23-03-2020 22:30:18 8.6 C 64 %
137 23-03-2020 22:40:18 8.6 C 64 %
138 23-03-2020 22:50:18 8.6 C 64 %
139 23-03-2020 23:00:18 8.6 C 64 %
140 23-03-2020 23:10:18 8.6 C 64 %
141 23-03-2020 23:20:17 8.6 C 64 %
142 23-03-2020 23:30:17 8.6 C 64 %
143 23-03-2020 23:40:17 8.6 C 64 %
144 23-03-2020 23:50:18 8.5 C 64 %
145 24-03-2020 00:00:18 8.5 C 64 %
146 24-03-2020 00:10:18 8.5 C 64 %
147 24-03-2020 00:20:17 8.5 C 64 %
148 24-03-2020 00:30:18 8.5 C 64 %
149 24-03-2020 00:40:18 8.5 C 64 %
150 24-03-2020 00:50:18 8.5 C 64 %
Sensor: Nr:Datum:Temp:Feuchte:
G-T/H 151 24-03-2020 01:00:18 8.5 C 64 %
152 24-03-2020 01:10:18 8.5 C 64 %
153 24-03-2020 01:20:18 8.4 C 64 %
154 24-03-2020 01:30:18 8.4 C 64 %
155 24-03-2020 01:40:18 8.4 C 64 %
156 24-03-2020 01:50:18 8.4 C 64 %
157 24-03-2020 02:00:18 8.4 C 64 %
158 24-03-2020 02:10:18 8.4 C 63 %
159 24-03-2020 02:20:17 8.4 C 63 %
160 24-03-2020 02:30:17 8.4 C 63 %
161 24-03-2020 02:40:17 8.3 C 63 %
162 24-03-2020 02:50:17 8.3 C 63 %
163 24-03-2020 03:00:17 8.3 C 63 %
164 24-03-2020 03:10:17 8.2 C 63 %
165 24-03-2020 03:20:17 8.3 C 63 %
166 24-03-2020 03:30:17 8.3 C 63 %
167 24-03-2020 03:40:17 8.3 C 63 %
168 24-03-2020 03:50:17 8.2 C 63 %
169 24-03-2020 04:00:18 8.2 C 63 %
170 24-03-2020 04:10:18 8.2 C 63 %
171 24-03-2020 04:20:18 8.2 C 63 %
172 24-03-2020 04:30:18 8.1 C 63 %
173 24-03-2020 04:40:18 8.1 C 63 %
174 24-03-2020 04:50:17 8.1 C 63 %
175 24-03-2020 05:00:17 8.1 C 63 %
Sensor: Nr:Datum:Temp:Feuchte:
G-T/H 176 24-03-2020 05:10:17 8.1 C 63 %
177 24-03-2020 05:20:17 8.1 C 63 %
178 24-03-2020 05:30:18 8.1 C 63 %
179 24-03-2020 05:40:18 8 C 63 %
180 24-03-2020 05:50:18 8 C 63 %
181 24-03-2020 06:00:17 8 C 63 %
182 24-03-2020 06:10:18 8 C 63 %
183 24-03-2020 06:20:17 8 C 62 %
184 24-03-2020 06:30:18 7.9 C 63 %
185 24-03-2020 06:40:18 7.9 C 63 %
186 24-03-2020 06:50:18 8 C 62 %
187 24-03-2020 07:00:18 7.9 C 63 %
188 24-03-2020 07:10:18 7.9 C 63 %
189 24-03-2020 07:20:18 7.9 C 63 %
190 24-03-2020 07:30:18 7.9 C 63 %
191 24-03-2020 07:40:18 7.9 C 63 %
192 24-03-2020 07:50:17 7.8 C 63 %
193 24-03-2020 08:00:17 7.8 C 63 %
194 24-03-2020 08:10:17 7.8 C 63 %
195 24-03-2020 08:20:17 7.8 C 63 %
196 24-03-2020 08:30:17 7.8 C 63 %
197 24-03-2020 08:40:17 7.8 C 63 %
198 24-03-2020 08:50:17 7.8 C 63 %
199 24-03-2020 09:00:17 7.8 C 63 %
200 24-03-2020 09:10:17 7.8 C 63 %
Sensor: Nr:Datum:Temp:Feuchte:
G-T/H 201 24-03-2020 09:20:17 7.8 C 63 %
202 24-03-2020 09:30:17 7.8 C 63 %
203 24-03-2020 09:40:17 7.8 C 63 %
204 24-03-2020 09:50:18 7.8 C 63 %
205 24-03-2020 10:00:18 7.8 C 64 %
206 24-03-2020 10:10:18 7.8 C 64 %
207 24-03-2020 10:20:17 7.8 C 64 %
208 24-03-2020 10:30:17 7.7 C 64 %
209 24-03-2020 10:40:17 7.7 C 64 %
210 24-03-2020 10:50:17 7.7 C 64 %
211 24-03-2020 11:00:18 7.7 C 64 %
212 24-03-2020 11:10:18 7.8 C 64 %
213 24-03-2020 11:20:17 7.7 C 64 %
214 24-03-2020 11:30:17 7.7 C 64 %
215 24-03-2020 11:40:17 7.7 C 64 %
216 24-03-2020 11:50:18 7.7 C 64 %
217 24-03-2020 12:00:18 7.7 C 64 %
218 24-03-2020 12:10:18 7.7 C 64 %
219 24-03-2020 12:20:17 7.7 C 64 %
220 24-03-2020 12:30:17 7.8 C 64 %
221 24-03-2020 12:40:17 7.8 C 64 %
222 24-03-2020 12:50:17 7.8 C 64 %
223 24-03-2020 13:00:18 7.8 C 65 %
224 24-03-2020 13:10:18 7.8 C 65 %
225 24-03-2020 13:20:17 7.8 C 64 %
Sensor: Nr:Datum:Temp:Feuchte:
G-T/H 226 24-03-2020 13:30:17 7.8 C 64 %
227 24-03-2020 13:40:17 7.8 C 64 %
228 24-03-2020 13:50:18 7.8 C 64 %
229 24-03-2020 14:00:17 7.8 C 64 %
230 24-03-2020 14:10:17 7.8 C 65 %
231 24-03-2020 14:20:17 7.8 C 65 %
232 24-03-2020 14:30:17 7.8 C 65 %
233 24-03-2020 14:40:17 7.9 C 64 %
234 24-03-2020 14:50:18 7.9 C 64 %
235 24-03-2020 15:00:18 7.8 C 64 %
236 24-03-2020 15:10:18 7.9 C 64 %
237 24-03-2020 15:20:18 7.9 C 64 %
238 24-03-2020 15:30:18 7.9 C 64 %
239 24-03-2020 15:40:18 7.9 C 64 %
240 24-03-2020 15:50:18 7.9 C 64 %
241 24-03-2020 16:00:18 7.9 C 64 %
242 24-03-2020 16:10:18 7.9 C 64 %
243 24-03-2020 16:20:18 7.9 C 64 %
244 24-03-2020 16:30:18 7.9 C 64 %
245 24-03-2020 16:40:18 7.9 C 64 %
246 24-03-2020 16:50:18 7.9 C 64 %
247 24-03-2020 17:00:18 8 C 63 %
248 24-03-2020 17:10:18 8 C 63 %
249 24-03-2020 17:20:18 8 C 63 %
250 24-03-2020 17:30:18 8 C 64 %
Sensor: Nr:Datum:Temp:Feuchte:
G-T/H 251 24-03-2020 17:40:18 8 C 64 %
252 24-03-2020 17:50:17 8.1 C 64 %
253 24-03-2020 18:00:17 8.1 C 64 %
254 24-03-2020 18:10:17 8.1 C 64 %
255 24-03-2020 18:20:17 8.1 C 64 %
256 24-03-2020 18:30:17 8.1 C 64 %
257 24-03-2020 18:40:18 8.2 C 65 %
258 24-03-2020 18:50:17 8.1 C 65 %
259 24-03-2020 19:00:18 8.2 C 65 %
260 24-03-2020 19:10:18 8.2 C 65 %
261 24-03-2020 19:20:18 8.1 C 65 %
262 24-03-2020 19:30:18 8.1 C 65 %
263 24-03-2020 19:40:18 8.2 C 65 %
264 24-03-2020 19:50:17 8.2 C 65 %
265 24-03-2020 20:00:18 8.2 C 65 %
266 24-03-2020 20:10:18 8.2 C 65 %
267 24-03-2020 20:20:17 8.2 C 65 %
268 24-03-2020 20:30:18 8.2 C 65 %
269 24-03-2020 20:40:18 8.2 C 65 %
270 24-03-2020 20:50:18 8.2 C 65 %
271 24-03-2020 21:00:18 8.2 C 65 %
272 24-03-2020 21:10:18 8.2 C 65 %
273 24-03-2020 21:20:17 8.2 C 65 %
274 24-03-2020 21:30:17 8.2 C 65 %
275 24-03-2020 21:40:17 8.2 C 65 %
Sensor: Nr:Datum:Temp:Feuchte:
G-T/H 276 24-03-2020 21:50:17 8.2 C 65 %
277 24-03-2020 22:00:18 8.2 C 65 %
278 24-03-2020 22:10:18 8.2 C 65 %
279 24-03-2020 22:20:17 8.2 C 65 %
280 24-03-2020 22:30:18 8.2 C 65 %
281 24-03-2020 22:40:18 8.2 C 65 %
282 24-03-2020 22:50:17 8.2 C 65 %
283 24-03-2020 23:00:18 8.2 C 65 %
284 24-03-2020 23:10:18 8.2 C 64 %
285 24-03-2020 23:20:17 8.2 C 64 %
286 24-03-2020 23:30:18 8.2 C 64 %
287 24-03-2020 23:40:18 8.2 C 64 %
288 24-03-2020 23:50:18 8.2 C 64 %

Legende:
   Min
   Max


Maximal/Minimal-Werte vom 23.03.2020 - 24.03.2020

Sensor Min Max Avg
Temp
(Aussen-T/F)
-4.7 °C
24-03-2020  06:00:17
15.4 °C
24-03-2020  15:40:18
2.97 °C
Feuchte
(Aussen-T/F)
20 %
23-03-2020  09:20:18
39 %
24-03-2020  03:20:17
27.46 %
Temp
(G-T/H)
7.7 °C
24-03-2020  10:30:17
9.4 °C
23-03-2020  00:00:18
8.36 °C
Feuchte
(G-T/H)
62 %
23-03-2020  03:50:18
65 %
24-03-2020  13:00:18
63.37 %

Die Daten stammen von einer Davis Vantage Pro 2 Wetter-Station und werden unter Linux mit der Software wview2wettercgi und aufbereitet. Alle Angaben erfolgen ohne Gewähr für ihre Vollständigkeit oder Richtigkeit.
Kontakt: Rainer Krienke krienke@uni-koblenz.de . Meine Webseiten an der Uni Koblenz oder privat.
Version: $Revision: 0.78 $